sat.trackr.live / text

‹ back to catalog

STARLINK-11189 [DTC]

NORAD 60188 · 2024-124F

PAYLOAD ACTIVE UNKNOWN

§ Identity

Operator
Country
US
Launch date
2024-07-03
Launch site
AFETR
Launch vehicle
Mass (kg)
RCS (m²)

Purposes: comms

External: N2YO · Heavens-Above · Gunter

§ Orbital elements

Epoch: 2026-09-20T08:32:57.414912Z

Period
91.74 min
Inclination
53.1585°
Eccentricity
0.0001190
Mean motion
15.69713691 rev/d
Perigee alt
358.9 km
Apogee alt
360.5 km
Semi-major
6,737.9 km
B*
1.7426e-5
RAAN
281.9890°
Arg perigee
84.5596°
Mean anomaly
275.5558°
Rev number
12,710

§ Raw data

STARLINK-11189 [DTC]1 60188U 24124F   26263.35622008  .00001523  00000+0  17426-4 0  99952 60188  53.1585 281.9890 0001190  84.5596 275.5558 15.69713691127103

JSON: /api/v1/satellites/60188 · /tle

For live sub-satellite position, see the globe view (requires WebGL).

§ Visibility from observer

Set your observer location to see the next 7 days of passes ≥ 10°. The values pass through the URL so the page stays shareable.

No JS? Fill the form by hand. The geolocation button needs JavaScript.